Location: ?????
(38.2579°N, 22.9711°E)
Time: 13:46:32
(UTC+00:00)

Cosmos 1076 Rocket - Pass Details

Date: 13 December 2025
Orbit: 582 x 603 km, 82.5° (Epoch: 17 January)

Event Time Altitude Azimuth Distance (km) Brightness Sun altitude
Rises 16:22:06 0° 352° (N) 2,855 6.9 -14.0°
Reaches altitude 10° 16:24:19 10° 352° (N) 1,950 6.0 -14.5°
Maximum altitude 16:28:38 85° 265° (W) 609 3.5 -15.3°
Drops below altitude 10° 16:32:56 10° 176° (S) 1,940 6.3 -16.1°
Sets 16:35:08 0° 176° (S) 2,838 7.1 -16.5°
